Tracking 17150 objects as of 4-August-2015
HD Live streaming from Space Station

SDS-4

Track SDS-4 now!
10-day predictions
SDS-4 is classified as:


NORAD ID: 38339
Int'l Code: 2012-025C
Perigee: 663.7 km
Apogee: 672.7 km
Inclination: 98.3 °
Period: 98.0 minutes
Semi major axis: 7039 km
RCS: 0.47 m2 (medium)
Launch date: May 17, 2012
Source: Japan (JPN)
Your satellite tracking list
Your tracking list is empty





NASA's NSSDC Master Catalog

Two Line Element Set (TLE):
1 38339U 12025C   15214.90870132  .00000327  00000-0  63189-4 0  9992
2 38339 098.3175 180.2476 0006421 280.2202 079.8278 14.70005034172058

Source of the keplerian elements: AFSPC

N2YO: 309